Flag for France Weather past 2 weeks in Bastia, Corsica, France

Now
75 °F

Broken clouds.


Feels Like: 77 °F
Forecast: 63 / 76 °F
Wind: 6 mph from Northeast

Location: Bastia Airport

Current Time: Jul 29, 2014 at 3:48:56 PM

Latest Report: Jul 29, 2014 at 3:00 PM


Visibility: N/A

Pressure: 29.77 "Hg

Humidity: 65%

Dew point: 63 °F

Location of BastiaLocation

Historic Weather in Bastia — Graph

°F

Bastia temperature yesterday

Maximum temperature yesterday: 84 °F (at 12:00 PM)
Minimum temperature yesterday: 68 °F (at 12:00 AM)
Average temperature yesterday: 77 °F

Past Weeks' High & Low Weather Summary

 TemperatureHumidityPressure
High88 °F (Jul 16, 2:30 PM)94% (Jul 14, 11:00 PM)30.09 "Hg (Jul 14, 11:00 PM)
Low63 °F (Jul 15, 5:00 AM)31% (Jul 21, 11:30 AM)29.71 "Hg (Jul 22, 3:30 AM)
Average75 °F68%29.91 "Hg
* Reported Jul 14 3:00 PM — Jul 29 3:00 PM, Bastia, Weather by CustomWeather, © 2014

Note: Actual official high and low records may vary slightly from our data, if they occured in-between our weather recording intervals... More about our weather records

Advertising

Bastia weather history for previous 24 hours

 ConditionsComfort  
Time TempWeatherWind HumidityBarometerVisibility
3:00 PM
Jul 29
75 °FBroken clouds.6 mph65%29.77 "HgN/A
2:00 PM75 °FBroken clouds.7 mph61%29.77 "HgN/A
1:30 PM75 °FBroken clouds.9 mph61%29.77 "HgN/A
1:00 PM77 °FBroken clouds.8 mph57%29.77 "HgN/A
12:30 PM75 °FBroken clouds.9 mph65%29.77 "HgN/A
12:00 PM75 °FBroken clouds.12 mph61%29.77 "HgN/A
11:30 AM75 °FBroken clouds.3 mph65%29.77 "HgN/A
11:00 AM73 °FBroken clouds.6 mph69%29.77 "HgN/A
10:30 AM73 °FBroken clouds.7 mph74%29.77 "HgN/A
10:00 AM73 °FPartly sunny.8 mph78%29.77 "HgN/A
9:30 AM70 °FLight rain. More clouds than sun.3 mph78%29.80 "HgN/A
9:00 AM68 °FLight rain. More clouds than sun.3 mph83%29.80 "HgN/A
8:30 AM68 °FLight rain. Overcast.3 mph83%29.80 "HgN/A
8:00 AM68 °FLight rain. Overcast.2 mph83%29.80 "HgN/A
7:30 AM68 °FOvercast.3 mph83%29.80 "HgN/A
7:00 AM70 °FLight rain. Mostly cloudy.2 mph78%29.77 "HgN/A
6:30 AM70 °FLight rain. Overcast.No wind69%29.80 "HgN/A
6:00 AM72 °FLight rain. Passing clouds.5 mph61%29.80 "HgN/A
4:30 AM72 °FPassing clouds.2 mph73%29.80 "HgN/A
4:00 AM70 °FPassing clouds.5 mph73%29.80 "HgN/A
3:30 AM70 °FMild.5 mph73%29.80 "HgN/A
3:00 AM70 °FMild.2 mph73%29.80 "HgN/A
2:30 AM70 °FClear.3 mph78%29.80 "HgN/A
2:00 AM70 °FClear.2 mph78%29.80 "HgN/A
1:30 AM70 °FClear.3 mph73%29.80 "HgN/A
1:00 AM70 °FClear.3 mph78%29.80 "HgN/A
12:30 AM70 °FPartly cloudy.3 mph78%29.83 "HgN/A
12:00 AM72 °FPartly cloudy.3 mph78%29.83 "HgN/A
11:30 PM
Jul 28
73 °FPartly cloudy.5 mph74%29.83 "HgN/A
11:00 PM73 °FPassing clouds.3 mph74%29.83 "HgN/A
10:00 PM73 °FPassing clouds.3 mph83%29.83 "HgN/A
9:30 PM75 °FPartly sunny.5 mph78%29.83 "HgN/A
9:00 PM75 °FMore clouds than sun.No wind78%29.83 "HgN/A
8:30 PM75 °FBroken clouds.1 mph78%29.83 "HgN/A
8:00 PM77 °FBroken clouds.3 mph74%29.83 "HgN/A
7:30 PM79 °FBroken clouds.6 mph65%29.83 "HgN/A
7:00 PM79 °FBroken clouds.3 mph61%29.83 "HgN/A
6:30 PM82 °FBroken clouds.5 mph55%29.83 "HgN/A
6:00 PM81 °FPartly sunny.6 mph58%29.83 "HgN/A
5:30 PM82 °FPartly sunny.7 mph58%29.86 "HgN/A
5:00 PM82 °FScattered clouds.6 mph55%29.86 "HgN/A
4:30 PM82 °FScattered clouds.7 mph55%29.86 "HgN/A
4:00 PM82 °FScattered clouds.7 mph58%29.86 "HgN/A
3:30 PM82 °FScattered clouds.9 mph58%29.86 "HgN/A
3:00 PM82 °FPassing clouds.9 mph58%29.86 "HgN/A
Weather by CustomWeather, © 2014

See weather overviewHow to use our weather pages